Weather in Oran

Algeria     35˚41′53″N   0˚38′40″E
temp.,
°C
wind,
m/s
gust,
m/s
humid.,
%
clouds,
%
prec.,
mm/h
press.,
hPa
HPBL,
m
27 november, fri
fri2701:00+19˚se81349100 0.0 1007534
04:00+14˚w2280100 1.2 1005196
07:00+15˚ssw4574100 2.7 1006705
10:00+16˚ssw4550100 0.0 10061065
13:00+16˚wsw3446100 0.0 10051342
16:00+16˚w5659100 0.0 10041138
19:00+15˚wnw6768100 1.6 1005784
22:00+15˚w7870100 3.6 1006883
28 november, sat
sat2801:00+15˚w91270100 5.5 10051234
04:00+15˚w101371100 1.4 10051321
07:00+15˚wsw101372100 2.6 10051160
10:00+15˚wsw10137495 1.8 10071133
13:00+16˚w12147194 2.5 10071330
16:00+17˚w10137024 0.4 10071187
19:00+16˚w9127519 0.9 1009998
22:00+17˚w811740 0.4 10121093
29 november, sun
sun2901:00+17˚wnw811740 0.8 1012925
04:00+16˚w58777 0.6 1013663
07:00+16˚sw45764 0.8 1014359
10:00+16˚s23676 0.0 1016145
13:00+19˚ene11533 0.0 1015389
16:00+18˚nne55630 0.0 1015407
19:00+17˚ene67740 0.0 1016378
22:00+17˚e47740 0.0 1017385
30 november, mon
mon3001:00+17˚e35720 0.0 1017237
04:00+16˚ese22610 0.0 1018114
07:00+16˚se334822 0.0 101883
10:00+17˚se47459 0.0 1019287
13:00+21˚sse34474 0.0 1018560
16:00+21˚ene24450 0.0 1017750
19:00+19˚ene69550 0.0 1017207
22:00+19˚se46490 0.0 1019117
1 december, tue
tue101:00+18˚sse46500 0.0 1019136
04:00+17˚sse23530 0.0 101840
07:00+17˚sse23530 0.0 101842
10:00+18˚s23500 0.0 101868
13:00+19˚w56510 0.0 1018460
16:00+18˚wnw34660 0.0 1016392
19:00+17˚wnw12773 0.0 1017167
22:00+17˚sw22760 0.0 101794